GFSNW_prec_precacc24_240.txt.gz
Total_Precipitation_Accumulation
0.00 0.00 0.00 0.00 0.00 0.00 0.00 0.00 0.00 0.00 0.00 0.00 0.00 0.00 0.00 0.00 0.00 0.00 0.00 0.00 0.00 0.00 0.00 0.00 0.00 0.00 0.00 0.00 0.00 0.00 0.00 0.00 0.00 0.00 0.00 0.00 0.01 0.01 0.00 0.02 0.03 0.06 0.12 0.39
0.00 0.00 0.00 0.00 0.00 0.00 0.00 0.00 0.00 0.00 0.00 0.00 0.00 0.00 0.00 0.00 0.00 0.00 0.00 0.00 0.00 0.00 0.00 0.00 0.00 0.00 0.00 0.00 0.00 0.00 0.06 0.06 0.02 0.00 0.01 0.07 0.08 0.02 0.01 0.01 0.01 0.01 0.08 0.36
0.00 0.00 0.00 0.00 0.00 0.00 0.00 0.00 0.00 0.00 0.00 0.00 0.00 0.00 0.00 0.00 0.00 0.00 0.00 0.00 0.00 0.00 0.00 0.00 0.00 0.00 0.00 0.00 0.00 0.02 0.03 0.03 0.02 0.03 0.01 0.01 0.00 0.00 0.02 0.05 0.03 0.01 0.01 0.02
0.00 0.00 0.00 0.00 0.00 0.00 0.00 0.00 0.00 0.00 0.00 0.00 0.00 0.00 0.00 0.00 0.00 0.00 0.00 0.00 0.00 0.00 0.00 0.00 0.00 0.00 0.00 0.00 0.00 0.00 0.01 0.02 0.00 0.00 0.00 0.01 0.02 0.04 0.05 0.03 0.04 0.05 0.05 0.05
0.00 0.00 0.00 0.00 0.00 0.00 0.00 0.00 0.00 0.00 0.00 0.00 0.00 0.00 0.00 0.00 0.00 0.00 0.00 0.00 0.00 0.00 0.00 0.01 0.01 0.00 0.00 0.00 0.00 0.00 0.00 0.02 0.00 0.00 0.01 0.01 0.11 0.05 0.06 0.05 0.04 0.04 0.03 0.06
0.00 0.00 0.00 0.00 0.00 0.00 0.00 0.00 0.00 0.00 0.00 0.00 0.00 0.00 0.00 0.00 0.00 0.00 0.00 0.00 0.00 0.00 0.00 0.00 0.00 0.00 0.00 0.01 0.02 0.02 0.01 0.03 0.06 0.03 0.00 0.03 0.09 0.09 0.07 0.09 0.02 0.01 0.04 0.06
0.01 0.00 0.00 0.00 0.00 0.00 0.00 0.00 0.00 0.00 0.00 0.00 0.00 0.00 0.00 0.00 0.00 0.00 0.00 0.00 0.00 0.00 0.00 0.00 0.00 0.00 0.00 0.01 0.02 0.01 0.02 0.04 0.09 0.06 0.01 0.03 0.08 0.03 0.02 0.01 0.01 0.00 0.00 0.00
0.01 0.00 0.01 0.01 0.00 0.01 0.00 0.00 0.00 0.00 0.00 0.00 0.00 0.00 0.00 0.00 0.00 0.00 0.00 0.00 0.00 0.00 0.00 0.00 0.00 0.00 0.00 0.00 0.01 0.02 0.00 0.02 0.07 0.09 0.05 0.02 0.04 0.01 0.00 0.00 0.01 0.01 0.00 0.00
0.01 0.01 0.01 0.01 0.00 0.03 0.01 0.00 0.00 0.03 0.05 0.00 0.00 0.00 0.00 0.00 0.01 0.00 0.00 0.00 0.00 0.00 0.00 0.00 0.03 0.03 0.01 0.01 0.00 0.00 0.01 0.03 0.13 0.12 0.11 0.05 0.02 0.00 0.00 0.00 0.00 0.00 0.00 0.00
0.00 0.01 0.01 0.01 0.02 0.04 0.04 0.02 0.03 0.06 0.12 0.01 0.00 0.01 0.01 0.02 0.05 0.05 0.00 0.00 0.00 0.00 0.00 0.02 0.03 0.01 0.01 0.02 0.01 0.00 0.01 0.02 0.04 0.04 0.06 0.05 0.02 0.00 0.00 0.01 0.01 0.00 0.00 0.00
0.00 0.01 0.02 0.01 0.03 0.04 0.03 0.03 0.04 0.07 0.11 0.02 0.00 0.00 0.01 0.02 0.02 0.04 0.03 0.05 0.03 0.08 0.06 0.11 0.06 0.02 0.04 0.01 0.00 0.01 0.04 0.05 0.02 0.03 0.04 0.08 0.02 0.02 0.04 0.05 0.03 0.01 0.03 0.01
0.01 0.01 0.02 0.02 0.01 0.04 0.07 0.02 0.03 0.07 0.08 0.01 0.00 0.00 0.00 0.02 0.02 0.07 0.07 0.06 0.07 0.19 0.17 0.21 0.14 0.09 0.05 0.03 0.02 0.01 0.09 0.12 0.16 0.16 0.06 0.01 0.00 0.01 0.02 0.03 0.07 0.01 0.04 0.02
0.02 0.02 0.02 0.01 0.01 0.03 0.10 0.04 0.04 0.06 0.04 0.00 0.00 0.00 0.00 0.00 0.00 0.05 0.06 0.01 0.08 0.10 0.19 0.24 0.20 0.09 0.04 0.03 0.03 0.08 0.05 0.03 0.10 0.07 0.01 0.00 0.00 0.00 0.00 0.00 0.01 0.01 0.02 0.04
0.01 0.01 0.01 0.01 0.01 0.04 0.08 0.04 0.03 0.08 0.06 0.08 0.00 0.00 0.00 0.00 0.00 0.00 0.03 0.03 0.05 0.07 0.10 0.18 0.14 0.06 0.02 0.03 0.09 0.18 0.15 0.08 0.07 0.03 0.00 0.03 0.00 0.00 0.01 0.01 0.00 0.01 0.01 0.01
0.01 0.00 0.00 0.01 0.02 0.03 0.04 0.00 0.00 0.03 0.13 0.08 0.00 0.00 0.00 0.00 0.00 0.00 0.02 0.00 0.02 0.02 0.05 0.07 0.03 0.02 0.10 0.13 0.17 0.28 0.26 0.37 0.37 0.18 0.02 0.21 0.07 0.00 0.01 0.07 0.03 0.05 0.09 0.08
0.00 0.00 0.00 0.00 0.01 0.03 0.03 0.00 0.00 0.00 0.06 0.11 0.04 0.00 0.00 0.01 0.00 0.00 0.01 0.00 0.00 0.01 0.01 0.02 0.02 0.03 0.35 0.32 0.20 0.23 0.12 0.12 0.25 0.22 0.08 0.06 0.02 0.00 0.00 0.06 0.05 0.08 0.14 0.12
0.00 0.00 0.00 0.00 0.00 0.02 0.03 0.02 0.09 0.09 0.09 0.18 0.11 0.00 0.02 0.01 0.00 0.00 0.00 0.00 0.00 0.00 0.02 0.05 0.03 0.04 0.41 0.36 0.15 0.04 0.00 0.00 0.01 0.07 0.18 0.12 0.03 0.07 0.05 0.09 0.07 0.06 0.04 0.04
0.00 0.00 0.00 0.00 0.00 0.00 0.00 0.01 0.02 0.03 0.06 0.06 0.04 0.01 0.03 0.01 0.02 0.00 0.00 0.00 0.00 0.00 0.06 0.11 0.21 0.19 0.18 0.14 0.03 0.00 0.00 0.01 0.00 0.01 0.06 0.14 0.08 0.04 0.05 0.04 0.04 0.05 0.03 0.04
0.00 0.00 0.00 0.00 0.00 0.00 0.00 0.01 0.00 0.01 0.05 0.04 0.06 0.08 0.07 0.04 0.01 0.00 0.00 0.00 0.00 0.02 0.17 0.24 0.18 0.12 0.11 0.17 0.13 0.07 0.07 0.16 0.14 0.02 0.00 0.01 0.02 0.04 0.04 0.05 0.07 0.11 0.08 0.06
0.00 0.00 0.00 0.00 0.00 0.00 0.00 0.00 0.00 0.00 0.03 0.06 0.05 0.09 0.09 0.03 0.00 0.00 0.00 0.01 0.01 0.03 0.22 0.46 0.15 0.10 0.10 0.06 0.11 0.16 0.17 0.17 0.17 0.25 0.25 0.24 0.17 0.09 0.07 0.12 0.16 0.18 0.16 0.09
0.00 0.00 0.00 0.00 0.00 0.00 0.00 0.00 0.00 0.00 0.00 0.02 0.03 0.06 0.03 0.00 0.01 0.03 0.02 0.02 0.02 0.08 0.16 0.34 0.08 0.03 0.02 0.01 0.02 0.03 0.07 0.11 0.16 0.27 0.29 0.31 0.38 0.34 0.26 0.16 0.12 0.12 0.16 0.23
0.01 0.01 0.01 0.00 0.00 0.00 0.00 0.00 0.00 0.00 0.00 0.02 0.03 0.03 0.01 0.01 0.01 0.03 0.02 0.04 0.05 0.19 0.06 0.03 0.01 0.05 0.03 0.02 0.02 0.05 0.08 0.15 0.18 0.26 0.35 0.35 0.34 0.30 0.23 0.21 0.21 0.25 0.25 0.25
0.00 0.00 0.00 0.00 0.00 0.00 0.00 0.00 0.00 0.00 0.04 0.06 0.09 0.03 0.01 0.01 0.02 0.01 0.01 0.03 0.09 0.06 0.00 0.02 0.06 0.04 0.01 0.03 0.04 0.04 0.03 0.07 0.12 0.15 0.21 0.21 0.17 0.15 0.20 0.19 0.20 0.22 0.23 0.29
0.00 0.00 0.00 0.00 0.00 0.00 0.00 0.00 0.00 0.02 0.08 0.11 0.04 0.02 0.02 0.03 0.00 0.01 0.02 0.03 0.07 0.01 0.01 0.02 0.03 0.05 0.04 0.03 0.03 0.06 0.05 0.07 0.11 0.15 0.16 0.15 0.17 0.16 0.14 0.23 0.29 0.27 0.32 0.32
0.00 0.00 0.00 0.00 0.00 0.00 0.00 0.01 0.03 0.04 0.06 0.03 0.02 0.02 0.01 0.01 0.01 0.02 0.04 0.05 0.02 0.02 0.03 0.04 0.08 0.08 0.07 0.03 0.04 0.07 0.08 0.10 0.13 0.14 0.16 0.17 0.15 0.11 0.16 0.26 0.24 0.21 0.22 0.24
0.01 0.00 0.00 0.01 0.00 0.00 0.01 0.02 0.02 0.02 0.01 0.01 0.01 0.01 0.01 0.02 0.05 0.06 0.03 0.02 0.02 0.03 0.04 0.06 0.06 0.04 0.03 0.02 0.03 0.07 0.10 0.12 0.13 0.15 0.16 0.14 0.18 0.29 0.29 0.14 0.15 0.21 0.23 0.28
0.01 0.01 0.01 0.01 0.01 0.01 0.02 0.02 0.02 0.01 0.00 0.00 0.01 0.01 0.01 0.02 0.03 0.02 0.01 0.02 0.03 0.04 0.04 0.08 0.08 0.05 0.02 0.01 0.02 0.03 0.03 0.04 0.07 0.07 0.08 0.14 0.14 0.07 0.04 0.13 0.21 0.23 0.28 0.29

GFSNW_prec_precacc24_243.txt.gz
Total_Precipitation_Accumulation
0.00 0.00 0.00 0.00 0.00 0.00 0.00 0.00 0.00 0.00 0.00 0.00 0.00 0.00 0.00 0.00 0.00 0.00 0.00 0.00 0.00 0.00 0.00 0.00 0.00 0.00 0.00 0.00 0.00 0.00 0.00 0.02 0.02 0.00 0.01 0.03 0.05 0.04 0.01 0.04 0.07 0.06 0.13 0.52
0.00 0.00 0.00 0.00 0.00 0.00 0.00 0.00 0.00 0.00 0.00 0.00 0.00 0.00 0.00 0.00 0.00 0.00 0.00 0.00 0.00 0.00 0.00 0.00 0.00 0.00 0.00 0.00 0.00 0.02 0.08 0.09 0.04 0.01 0.02 0.10 0.12 0.03 0.02 0.01 0.02 0.02 0.11 0.49
0.00 0.00 0.00 0.00 0.00 0.00 0.00 0.00 0.00 0.00 0.00 0.00 0.00 0.00 0.00 0.00 0.00 0.00 0.00 0.00 0.00 0.00 0.00 0.00 0.00 0.00 0.00 0.00 0.00 0.03 0.04 0.04 0.04 0.06 0.02 0.03 0.03 0.03 0.06 0.07 0.08 0.03 0.07 0.10
0.00 0.00 0.00 0.00 0.00 0.00 0.00 0.00 0.00 0.00 0.00 0.00 0.00 0.00 0.00 0.00 0.00 0.00 0.00 0.00 0.00 0.00 0.00 0.00 0.00 0.00 0.00 0.00 0.00 0.00 0.02 0.03 0.01 0.00 0.03 0.06 0.08 0.09 0.07 0.05 0.08 0.07 0.10 0.07
0.00 0.00 0.00 0.00 0.00 0.00 0.00 0.00 0.00 0.00 0.00 0.00 0.00 0.00 0.00 0.00 0.00 0.00 0.00 0.00 0.00 0.00 0.00 0.02 0.01 0.00 0.01 0.01 0.00 0.01 0.02 0.03 0.01 0.01 0.02 0.04 0.11 0.05 0.06 0.06 0.04 0.04 0.04 0.07
0.00 0.00 0.00 0.00 0.00 0.00 0.00 0.00 0.00 0.00 0.00 0.00 0.00 0.00 0.00 0.00 0.00 0.00 0.00 0.00 0.00 0.00 0.00 0.00 0.00 0.00 0.00 0.01 0.03 0.03 0.02 0.04 0.07 0.04 0.00 0.07 0.11 0.10 0.07 0.09 0.02 0.01 0.04 0.07
0.00 0.00 0.00 0.00 0.00 0.00 0.00 0.00 0.00 0.00 0.00 0.00 0.00 0.00 0.00 0.00 0.00 0.00 0.00 0.00 0.00 0.00 0.00 0.00 0.00 0.00 0.00 0.01 0.03 0.02 0.02 0.05 0.10 0.07 0.01 0.06 0.09 0.03 0.02 0.01 0.01 0.00 0.01 0.00
0.01 0.00 0.01 0.00 0.00 0.01 0.00 0.00 0.00 0.00 0.00 0.00 0.00 0.00 0.00 0.00 0.00 0.00 0.00 0.00 0.00 0.00 0.00 0.00 0.00 0.00 0.00 0.00 0.01 0.02 0.00 0.02 0.06 0.09 0.05 0.03 0.05 0.01 0.00 0.00 0.00 0.01 0.00 0.00
0.00 0.01 0.01 0.01 0.00 0.02 0.01 0.00 0.00 0.02 0.04 0.00 0.00 0.00 0.00 0.00 0.01 0.00 0.00 0.00 0.00 0.00 0.00 0.01 0.03 0.03 0.01 0.01 0.00 0.00 0.01 0.03 0.12 0.12 0.11 0.06 0.02 0.00 0.00 0.00 0.02 0.00 0.00 0.00
0.00 0.01 0.00 0.01 0.02 0.01 0.01 0.01 0.03 0.03 0.07 0.00 0.00 0.01 0.01 0.02 0.04 0.04 0.00 0.00 0.00 0.00 0.01 0.03 0.04 0.01 0.01 0.02 0.01 0.00 0.01 0.02 0.04 0.05 0.06 0.05 0.02 0.00 0.00 0.01 0.01 0.00 0.00 0.01
0.00 0.01 0.01 0.01 0.02 0.01 0.01 0.01 0.03 0.05 0.08 0.01 0.00 0.00 0.01 0.01 0.01 0.03 0.02 0.03 0.02 0.07 0.05 0.10 0.06 0.03 0.04 0.01 0.00 0.01 0.05 0.05 0.03 0.03 0.04 0.09 0.02 0.02 0.05 0.06 0.03 0.01 0.04 0.02
0.00 0.01 0.01 0.02 0.01 0.02 0.03 0.01 0.02 0.05 0.06 0.01 0.00 0.00 0.00 0.02 0.02 0.06 0.05 0.05 0.06 0.17 0.15 0.20 0.12 0.08 0.04 0.02 0.02 0.01 0.10 0.12 0.17 0.16 0.06 0.02 0.00 0.01 0.02 0.03 0.08 0.02 0.04 0.03
0.00 0.01 0.01 0.01 0.01 0.02 0.05 0.02 0.03 0.05 0.02 0.00 0.00 0.00 0.00 0.00 0.00 0.05 0.04 0.01 0.08 0.10 0.18 0.17 0.15 0.06 0.03 0.02 0.03 0.08 0.05 0.03 0.09 0.05 0.00 0.00 0.00 0.00 0.00 0.00 0.01 0.01 0.02 0.05
0.01 0.01 0.01 0.01 0.01 0.02 0.04 0.02 0.02 0.05 0.04 0.06 0.00 0.00 0.00 0.00 0.00 0.00 0.03 0.03 0.04 0.05 0.06 0.10 0.07 0.04 0.02 0.03 0.08 0.18 0.15 0.06 0.06 0.02 0.00 0.03 0.00 0.00 0.01 0.01 0.00 0.01 0.01 0.01
0.00 0.00 0.00 0.01 0.01 0.02 0.02 0.00 0.00 0.03 0.10 0.06 0.00 0.00 0.00 0.00 0.00 0.00 0.02 0.00 0.02 0.02 0.03 0.04 0.02 0.02 0.09 0.11 0.16 0.28 0.25 0.34 0.32 0.15 0.02 0.22 0.08 0.00 0.01 0.07 0.03 0.05 0.10 0.09
0.00 0.00 0.00 0.00 0.00 0.01 0.01 0.00 0.00 0.00 0.05 0.07 0.03 0.00 0.00 0.01 0.00 0.00 0.01 0.00 0.00 0.01 0.01 0.01 0.02 0.03 0.28 0.26 0.19 0.21 0.07 0.13 0.27 0.24 0.09 0.07 0.02 0.00 0.00 0.07 0.05 0.09 0.16 0.13
0.00 0.00 0.00 0.00 0.00 0.01 0.01 0.01 0.07 0.05 0.04 0.05 0.04 0.00 0.02 0.01 0.00 0.00 0.00 0.00 0.00 0.00 0.01 0.03 0.03 0.03 0.30 0.28 0.09 0.02 0.00 0.01 0.02 0.08 0.19 0.12 0.03 0.07 0.05 0.10 0.08 0.06 0.05 0.05
0.00 0.00 0.00 0.00 0.00 0.00 0.00 0.00 0.01 0.01 0.02 0.03 0.02 0.01 0.03 0.01 0.01 0.00 0.00 0.00 0.00 0.01 0.05 0.10 0.19 0.12 0.07 0.04 0.01 0.00 0.00 0.01 0.00 0.01 0.07 0.15 0.08 0.05 0.05 0.05 0.05 0.05 0.03 0.04
0.00 0.00 0.00 0.00 0.00 0.00 0.00 0.01 0.00 0.00 0.01 0.01 0.03 0.06 0.05 0.02 0.00 0.00 0.00 0.00 0.01 0.02 0.16 0.22 0.12 0.03 0.07 0.16 0.13 0.07 0.07 0.16 0.14 0.02 0.00 0.01 0.03 0.04 0.04 0.05 0.08 0.12 0.08 0.07
0.00 0.00 0.00 0.00 0.00 0.00 0.00 0.00 0.00 0.00 0.00 0.02 0.02 0.07 0.04 0.01 0.00 0.00 0.00 0.01 0.00 0.04 0.22 0.39 0.05 0.07 0.10 0.06 0.11 0.16 0.15 0.16 0.16 0.21 0.23 0.24 0.17 0.09 0.08 0.12 0.16 0.20 0.17 0.09
0.00 0.00 0.00 0.00 0.00 0.00 0.00 0.00 0.00 0.00 0.00 0.01 0.03 0.04 0.02 0.00 0.01 0.03 0.02 0.02 0.01 0.06 0.14 0.18 0.03 0.03 0.02 0.01 0.02 0.02 0.06 0.11 0.16 0.25 0.27 0.30 0.36 0.31 0.24 0.15 0.12 0.13 0.16 0.25
0.00 0.01 0.01 0.00 0.00 0.00 0.00 0.00 0.00 0.00 0.00 0.02 0.03 0.02 0.01 0.01 0.01 0.03 0.01 0.02 0.02 0.14 0.03 0.00 0.01 0.05 0.03 0.01 0.02 0.04 0.07 0.11 0.13 0.20 0.26 0.25 0.27 0.26 0.22 0.21 0.22 0.26 0.26 0.24
0.00 0.00 0.00 0.00 0.00 0.00 0.00 0.00 0.00 0.00 0.03 0.05 0.08 0.02 0.01 0.01 0.02 0.01 0.01 0.01 0.05 0.03 0.00 0.02 0.05 0.04 0.01 0.02 0.01 0.03 0.02 0.04 0.07 0.08 0.12 0.15 0.14 0.13 0.18 0.17 0.17 0.17 0.15 0.24
0.00 0.00 0.00 0.00 0.00 0.00 0.00 0.00 0.00 0.01 0.05 0.06 0.02 0.01 0.02 0.03 0.00 0.00 0.01 0.01 0.03 0.00 0.00 0.02 0.03 0.03 0.02 0.01 0.02 0.04 0.03 0.04 0.05 0.07 0.08 0.09 0.11 0.11 0.10 0.17 0.22 0.20 0.27 0.29
0.00 0.00 0.00 0.00 0.00 0.00 0.00 0.00 0.01 0.02 0.03 0.01 0.01 0.01 0.01 0.01 0.01 0.01 0.02 0.02 0.01 0.02 0.02 0.03 0.06 0.04 0.03 0.01 0.02 0.03 0.03 0.06 0.07 0.08 0.09 0.10 0.08 0.06 0.10 0.19 0.18 0.17 0.19 0.18
0.00 0.00 0.00 0.01 0.00 0.00 0.00 0.01 0.01 0.01 0.01 0.01 0.01 0.00 0.00 0.01 0.03 0.03 0.02 0.01 0.02 0.03 0.03 0.05 0.05 0.01 0.01 0.02 0.02 0.04 0.06 0.07 0.08 0.09 0.10 0.07 0.11 0.20 0.22 0.10 0.11 0.16 0.17 0.21
0.00 0.01 0.01 0.01 0.01 0.01 0.01 0.01 0.00 0.01 0.00 0.00 0.01 0.00 0.01 0.01 0.01 0.01 0.01 0.02 0.02 0.03 0.03 0.06 0.05 0.02 0.01 0.01 0.02 0.02 0.03 0.03 0.03 0.04 0.04 0.09 0.10 0.06 0.03 0.08 0.14 0.16 0.19 0.21

GFSNW_prec_precacc24_249.txt.gz
Total_Precipitation_Accumulation
0.00 0.00 0.00 0.00 0.00 0.00 0.00 0.00 0.00 0.00 0.00 0.00 0.00 0.00 0.00 0.00 0.00 0.00 0.00 0.00 0.00 0.00 0.00 0.00 0.00 0.00 0.00 0.00 0.00 0.00 0.00 0.02 0.02 0.00 0.02 0.07 0.08 0.06 0.03 0.06 0.09 0.08 0.24 0.77
0.00 0.00 0.00 0.00 0.00 0.00 0.00 0.00 0.00 0.00 0.00 0.00 0.00 0.00 0.00 0.00 0.00 0.00 0.00 0.00 0.00 0.00 0.00 0.00 0.00 0.00 0.00 0.00 0.00 0.03 0.10 0.10 0.05 0.01 0.03 0.10 0.13 0.05 0.04 0.03 0.05 0.09 0.22 0.67
0.00 0.00 0.00 0.00 0.00 0.00 0.00 0.00 0.00 0.00 0.00 0.00 0.00 0.00 0.00 0.00 0.00 0.00 0.00 0.00 0.00 0.00 0.00 0.00 0.00 0.00 0.00 0.00 0.00 0.04 0.04 0.05 0.05 0.08 0.12 0.07 0.05 0.03 0.07 0.08 0.11 0.10 0.16 0.15
0.00 0.00 0.00 0.00 0.00 0.00 0.00 0.00 0.00 0.00 0.00 0.00 0.00 0.00 0.00 0.00 0.00 0.00 0.00 0.00 0.00 0.00 0.00 0.00 0.00 0.00 0.00 0.00 0.00 0.01 0.02 0.03 0.01 0.01 0.10 0.06 0.08 0.09 0.07 0.05 0.09 0.08 0.12 0.08
0.00 0.00 0.00 0.00 0.00 0.00 0.00 0.00 0.00 0.00 0.00 0.00 0.00 0.00 0.00 0.00 0.00 0.00 0.00 0.00 0.00 0.00 0.00 0.02 0.01 0.00 0.01 0.02 0.00 0.01 0.02 0.04 0.01 0.02 0.05 0.04 0.11 0.05 0.06 0.06 0.03 0.04 0.04 0.07
0.00 0.00 0.00 0.00 0.00 0.00 0.00 0.00 0.00 0.00 0.00 0.00 0.00 0.00 0.00 0.00 0.00 0.00 0.00 0.00 0.00 0.00 0.00 0.00 0.00 0.00 0.00 0.01 0.03 0.03 0.02 0.04 0.08 0.05 0.00 0.08 0.14 0.11 0.07 0.09 0.02 0.01 0.04 0.06
0.00 0.00 0.00 0.00 0.00 0.00 0.00 0.00 0.00 0.00 0.00 0.00 0.00 0.00 0.00 0.00 0.00 0.00 0.00 0.00 0.00 0.00 0.00 0.00 0.00 0.00 0.00 0.01 0.03 0.02 0.02 0.05 0.10 0.06 0.00 0.08 0.10 0.03 0.02 0.01 0.01 0.00 0.00 0.00
0.00 0.00 0.00 0.00 0.00 0.00 0.00 0.00 0.00 0.00 0.00 0.00 0.00 0.00 0.00 0.00 0.00 0.00 0.00 0.00 0.00 0.00 0.00 0.00 0.00 0.00 0.00 0.00 0.01 0.02 0.00 0.02 0.06 0.08 0.05 0.05 0.09 0.01 0.00 0.00 0.01 0.01 0.00 0.00
0.00 0.00 0.00 0.01 0.00 0.00 0.00 0.00 0.00 0.01 0.01 0.00 0.00 0.00 0.00 0.00 0.00 0.00 0.00 0.00 0.00 0.00 0.00 0.01 0.03 0.03 0.01 0.01 0.00 0.00 0.00 0.01 0.05 0.06 0.06 0.06 0.06 0.00 0.00 0.00 0.03 0.00 0.00 0.00
0.00 0.00 0.00 0.01 0.01 0.00 0.00 0.00 0.00 0.01 0.02 0.00 0.00 0.00 0.01 0.01 0.03 0.02 0.00 0.00 0.00 0.00 0.00 0.02 0.03 0.01 0.01 0.02 0.01 0.00 0.00 0.00 0.00 0.00 0.01 0.04 0.03 0.00 0.00 0.01 0.02 0.00 0.00 0.01
0.00 0.00 0.00 0.01 0.01 0.00 0.00 0.00 0.00 0.01 0.02 0.00 0.00 0.00 0.00 0.01 0.01 0.01 0.01 0.02 0.01 0.05 0.02 0.09 0.05 0.02 0.03 0.01 0.00 0.01 0.05 0.04 0.02 0.03 0.05 0.11 0.02 0.02 0.07 0.11 0.03 0.01 0.04 0.02
0.00 0.00 0.01 0.01 0.01 0.02 0.01 0.00 0.00 0.00 0.01 0.00 0.00 0.00 0.00 0.02 0.02 0.03 0.02 0.04 0.06 0.14 0.11 0.16 0.05 0.04 0.02 0.01 0.03 0.01 0.10 0.11 0.14 0.13 0.05 0.02 0.00 0.02 0.03 0.03 0.09 0.02 0.05 0.03
0.00 0.00 0.00 0.00 0.01 0.01 0.01 0.00 0.00 0.00 0.00 0.00 0.00 0.00 0.00 0.00 0.00 0.01 0.02 0.01 0.05 0.07 0.09 0.05 0.02 0.01 0.01 0.02 0.03 0.07 0.04 0.01 0.03 0.01 0.00 0.00 0.00 0.00 0.00 0.00 0.01 0.01 0.03 0.06
0.00 0.00 0.00 0.00 0.00 0.01 0.01 0.00 0.00 0.00 0.01 0.02 0.00 0.00 0.00 0.00 0.00 0.00 0.02 0.03 0.03 0.03 0.03 0.03 0.01 0.02 0.01 0.03 0.08 0.14 0.05 0.01 0.00 0.00 0.00 0.03 0.00 0.00 0.01 0.02 0.00 0.01 0.02 0.01
0.00 0.00 0.00 0.00 0.00 0.01 0.00 0.00 0.00 0.00 0.01 0.00 0.00 0.00 0.00 0.00 0.00 0.00 0.00 0.00 0.00 0.01 0.00 0.01 0.03 0.02 0.07 0.09 0.14 0.13 0.13 0.22 0.24 0.10 0.02 0.25 0.08 0.00 0.01 0.08 0.04 0.06 0.11 0.10
0.00 0.00 0.00 0.00 0.00 0.00 0.00 0.00 0.00 0.00 0.00 0.00 0.00 0.00 0.00 0.00 0.00 0.00 0.00 0.00 0.00 0.00 0.01 0.01 0.01 0.02 0.12 0.13 0.13 0.08 0.03 0.12 0.29 0.25 0.09 0.08 0.03 0.00 0.00 0.07 0.06 0.10 0.18 0.15
0.00 0.00 0.00 0.00 0.00 0.00 0.00 0.00 0.01 0.01 0.00 0.00 0.00 0.00 0.00 0.00 0.00 0.00 0.00 0.00 0.00 0.00 0.01 0.03 0.02 0.01 0.09 0.08 0.02 0.01 0.00 0.01 0.02 0.08 0.19 0.10 0.03 0.08 0.05 0.11 0.08 0.07 0.06 0.06
0.00 0.00 0.00 0.00 0.00 0.00 0.00 0.00 0.00 0.00 0.00 0.00 0.00 0.00 0.00 0.00 0.00 0.00 0.00 0.00 0.00 0.01 0.05 0.07 0.08 0.00 0.00 0.00 0.00 0.00 0.00 0.00 0.00 0.01 0.07 0.14 0.07 0.04 0.04 0.04 0.04 0.03 0.02 0.04
0.00 0.00 0.00 0.00 0.00 0.00 0.00 0.01 0.00 0.00 0.00 0.00 0.00 0.01 0.01 0.00 0.00 0.00 0.00 0.00 0.03 0.02 0.12 0.06 0.00 0.00 0.03 0.08 0.08 0.03 0.03 0.10 0.09 0.01 0.00 0.00 0.02 0.02 0.01 0.02 0.05 0.08 0.07 0.07
0.00 0.00 0.00 0.00 0.00 0.00 0.00 0.00 0.00 0.00 0.00 0.00 0.01 0.03 0.01 0.00 0.00 0.00 0.00 0.00 0.00 0.04 0.18 0.09 0.00 0.04 0.07 0.05 0.07 0.10 0.09 0.10 0.10 0.11 0.12 0.13 0.08 0.03 0.02 0.05 0.10 0.17 0.16 0.09
0.00 0.00 0.00 0.00 0.00 0.00 0.00 0.00 0.00 0.00 0.00 0.00 0.02 0.02 0.02 0.00 0.01 0.03 0.02 0.01 0.01 0.04 0.08 0.07 0.02 0.03 0.01 0.01 0.02 0.02 0.03 0.06 0.09 0.15 0.16 0.17 0.20 0.17 0.13 0.09 0.07 0.08 0.12 0.20
0.00 0.00 0.00 0.00 0.00 0.00 0.00 0.00 0.00 0.00 0.00 0.01 0.02 0.01 0.00 0.00 0.01 0.03 0.01 0.00 0.00 0.05 0.02 0.00 0.01 0.03 0.02 0.01 0.02 0.04 0.02 0.03 0.06 0.11 0.12 0.11 0.12 0.13 0.13 0.13 0.13 0.16 0.18 0.15
0.00 0.00 0.00 0.00 0.00 0.00 0.00 0.00 0.00 0.00 0.01 0.02 0.02 0.01 0.00 0.00 0.01 0.01 0.00 0.00 0.01 0.01 0.00 0.01 0.03 0.03 0.00 0.00 0.01 0.02 0.01 0.02 0.04 0.03 0.04 0.05 0.05 0.05 0.10 0.10 0.08 0.09 0.08 0.12
0.00 0.00 0.00 0.00 0.00 0.00 0.00 0.00 0.00 0.00 0.02 0.01 0.00 0.00 0.00 0.00 0.00 0.00 0.00 0.00 0.01 0.00 0.00 0.01 0.02 0.01 0.01 0.00 0.02 0.03 0.02 0.02 0.02 0.03 0.03 0.03 0.04 0.05 0.04 0.08 0.13 0.14 0.16 0.17
0.00 0.00 0.00 0.00 0.00 0.00 0.00 0.00 0.01 0.01 0.01 0.01 0.01 0.00 0.00 0.00 0.00 0.00 0.01 0.00 0.00 0.01 0.01 0.02 0.03 0.02 0.01 0.00 0.02 0.02 0.02 0.02 0.02 0.03 0.03 0.04 0.05 0.02 0.02 0.10 0.11 0.09 0.10 0.08
0.00 0.00 0.00 0.01 0.00 0.00 0.01 0.01 0.01 0.00 0.01 0.01 0.01 0.00 0.00 0.00 0.01 0.00 0.00 0.01 0.01 0.01 0.01 0.02 0.02 0.00 0.00 0.01 0.02 0.04 0.05 0.05 0.05 0.03 0.04 0.04 0.04 0.07 0.11 0.06 0.04 0.06 0.07 0.08
0.00 0.01 0.01 0.00 0.01 0.00 0.00 0.01 0.01 0.01 0.00 0.00 0.00 0.00 0.00 0.00 0.00 0.00 0.00 0.02 0.01 0.02 0.01 0.02 0.02 0.01 0.01 0.01 0.01 0.02 0.03 0.03 0.03 0.02 0.02 0.04 0.04 0.03 0.01 0.02 0.03 0.04 0.05 0.06

GFSNW_prec_precacc24_252.txt.gz
Total_Precipitation_Accumulation
0.00 0.00 0.00 0.00 0.00 0.00 0.00 0.00 0.00 0.00 0.00 0.00 0.00 0.00 0.00 0.00 0.00 0.00 0.00 0.00 0.00 0.00 0.00 0.00 0.00 0.00 0.00 0.00 0.00 0.00 0.00 0.02 0.02 0.00 0.02 0.07 0.08 0.06 0.03 0.06 0.09 0.06 0.23 0.74
0.00 0.00 0.00 0.00 0.00 0.00 0.00 0.00 0.00 0.00 0.00 0.00 0.00 0.00 0.00 0.00 0.00 0.00 0.00 0.00 0.00 0.00 0.00 0.00 0.00 0.00 0.00 0.00 0.00 0.03 0.10 0.10 0.06 0.02 0.03 0.10 0.13 0.05 0.04 0.03 0.06 0.08 0.18 0.61
0.00 0.00 0.00 0.00 0.00 0.00 0.00 0.00 0.00 0.00 0.00 0.00 0.00 0.00 0.00 0.00 0.00 0.00 0.00 0.00 0.00 0.00 0.00 0.00 0.00 0.00 0.00 0.00 0.00 0.04 0.04 0.05 0.06 0.08 0.12 0.08 0.05 0.03 0.06 0.04 0.09 0.10 0.16 0.14
0.00 0.00 0.00 0.00 0.00 0.00 0.00 0.00 0.00 0.00 0.00 0.00 0.00 0.00 0.00 0.00 0.00 0.00 0.00 0.00 0.00 0.00 0.00 0.00 0.00 0.00 0.00 0.00 0.00 0.01 0.02 0.03 0.01 0.01 0.10 0.06 0.08 0.09 0.07 0.05 0.08 0.07 0.12 0.08
0.00 0.00 0.00 0.00 0.00 0.00 0.00 0.00 0.00 0.00 0.00 0.00 0.00 0.00 0.00 0.00 0.00 0.00 0.00 0.00 0.00 0.00 0.00 0.02 0.01 0.00 0.01 0.02 0.00 0.01 0.02 0.04 0.01 0.02 0.06 0.04 0.12 0.05 0.06 0.06 0.03 0.04 0.04 0.07
0.00 0.00 0.00 0.00 0.00 0.00 0.00 0.00 0.00 0.00 0.00 0.00 0.00 0.00 0.00 0.00 0.00 0.00 0.00 0.00 0.00 0.00 0.00 0.00 0.00 0.00 0.00 0.01 0.03 0.03 0.02 0.04 0.08 0.05 0.00 0.08 0.15 0.11 0.08 0.07 0.02 0.01 0.04 0.05
0.00 0.00 0.00 0.00 0.00 0.00 0.00 0.00 0.00 0.00 0.00 0.00 0.00 0.00 0.00 0.00 0.00 0.00 0.00 0.00 0.00 0.00 0.00 0.00 0.00 0.00 0.00 0.01 0.03 0.02 0.02 0.05 0.09 0.06 0.00 0.08 0.11 0.03 0.02 0.01 0.02 0.01 0.01 0.00
0.00 0.00 0.00 0.00 0.00 0.00 0.00 0.00 0.00 0.00 0.00 0.00 0.00 0.00 0.00 0.00 0.00 0.00 0.00 0.00 0.00 0.00 0.00 0.00 0.00 0.00 0.00 0.00 0.01 0.02 0.00 0.01 0.04 0.06 0.03 0.05 0.10 0.02 0.00 0.00 0.02 0.02 0.00 0.00
0.00 0.00 0.00 0.00 0.00 0.00 0.00 0.00 0.00 0.00 0.00 0.00 0.00 0.00 0.00 0.00 0.00 0.00 0.00 0.00 0.00 0.00 0.00 0.00 0.02 0.02 0.01 0.00 0.00 0.00 0.00 0.00 0.01 0.02 0.02 0.04 0.05 0.00 0.00 0.00 0.03 0.01 0.00 0.00
0.00 0.00 0.00 0.01 0.01 0.00 0.00 0.00 0.00 0.00 0.00 0.00 0.00 0.00 0.00 0.01 0.02 0.01 0.00 0.00 0.00 0.00 0.00 0.02 0.03 0.01 0.00 0.01 0.00 0.00 0.00 0.00 0.00 0.00 0.01 0.04 0.03 0.00 0.00 0.01 0.03 0.00 0.00 0.02
0.00 0.00 0.00 0.00 0.01 0.00 0.00 0.00 0.00 0.00 0.00 0.00 0.00 0.00 0.00 0.00 0.01 0.01 0.00 0.01 0.01 0.05 0.02 0.08 0.04 0.01 0.01 0.01 0.00 0.01 0.05 0.03 0.02 0.03 0.04 0.11 0.02 0.02 0.08 0.12 0.04 0.02 0.05 0.02
0.00 0.00 0.00 0.00 0.00 0.01 0.00 0.00 0.00 0.00 0.00 0.00 0.00 0.00 0.00 0.01 0.01 0.01 0.01 0.02 0.03 0.11 0.08 0.11 0.02 0.01 0.00 0.01 0.03 0.01 0.09 0.08 0.08 0.08 0.03 0.02 0.01 0.02 0.05 0.04 0.10 0.03 0.06 0.04
0.00 0.00 0.00 0.00 0.00 0.01 0.00 0.00 0.00 0.00 0.00 0.00 0.00 0.00 0.00 0.00 0.00 0.00 0.01 0.01 0.02 0.04 0.06 0.03 0.01 0.01 0.00 0.02 0.03 0.06 0.02 0.00 0.01 0.01 0.00 0.00 0.00 0.00 0.00 0.00 0.02 0.02 0.05 0.09
0.00 0.00 0.00 0.00 0.00 0.00 0.00 0.00 0.00 0.00 0.00 0.00 0.00 0.00 0.00 0.00 0.00 0.00 0.00 0.00 0.00 0.00 0.01 0.03 0.01 0.02 0.01 0.02 0.07 0.06 0.02 0.01 0.00 0.00 0.00 0.03 0.00 0.00 0.01 0.02 0.00 0.01 0.02 0.02
0.00 0.00 0.00 0.00 0.00 0.00 0.00 0.00 0.00 0.00 0.00 0.00 0.00 0.00 0.00 0.00 0.00 0.00 0.00 0.00 0.00 0.00 0.00 0.01 0.03 0.02 0.06 0.09 0.10 0.07 0.09 0.17 0.18 0.06 0.01 0.21 0.07 0.00 0.02 0.08 0.04 0.06 0.12 0.11
0.00 0.00 0.00 0.00 0.00 0.00 0.00 0.00 0.00 0.00 0.00 0.00 0.00 0.00 0.00 0.00 0.00 0.00 0.00 0.00 0.00 0.00 0.01 0.02 0.01 0.02 0.09 0.09 0.06 0.05 0.02 0.11 0.26 0.21 0.07 0.08 0.03 0.00 0.01 0.06 0.05 0.09 0.16 0.14
0.00 0.00 0.00 0.00 0.00 0.00 0.00 0.00 0.01 0.00 0.00 0.00 0.00 0.00 0.00 0.00 0.00 0.00 0.00 0.00 0.00 0.00 0.01 0.03 0.01 0.00 0.02 0.01 0.01 0.00 0.00 0.01 0.02 0.06 0.14 0.07 0.02 0.05 0.03 0.07 0.05 0.04 0.04 0.05
0.00 0.00 0.00 0.00 0.00 0.00 0.00 0.00 0.00 0.00 0.00 0.00 0.00 0.00 0.00 0.00 0.00 0.00 0.00 0.00 0.00 0.02 0.05 0.04 0.01 0.00 0.00 0.00 0.00 0.00 0.00 0.00 0.00 0.01 0.05 0.10 0.03 0.01 0.01 0.01 0.01 0.01 0.01 0.01
0.00 0.00 0.00 0.00 0.00 0.00 0.00 0.01 0.00 0.00 0.00 0.00 0.00 0.01 0.00 0.00 0.00 0.00 0.00 0.00 0.03 0.03 0.07 0.00 0.00 0.00 0.01 0.05 0.05 0.02 0.02 0.07 0.06 0.01 0.00 0.00 0.01 0.01 0.01 0.01 0.04 0.07 0.05 0.04
0.00 0.00 0.00 0.00 0.00 0.00 0.00 0.00 0.00 0.00 0.00 0.00 0.00 0.02 0.01 0.00 0.00 0.00 0.00 0.00 0.01 0.04 0.10 0.03 0.00 0.03 0.04 0.03 0.04 0.06 0.06 0.06 0.07 0.08 0.09 0.10 0.06 0.02 0.01 0.03 0.08 0.14 0.13 0.06
0.00 0.00 0.00 0.00 0.00 0.00 0.00 0.00 0.00 0.00 0.00 0.00 0.01 0.01 0.01 0.00 0.01 0.02 0.02 0.01 0.01 0.04 0.06 0.05 0.02 0.02 0.01 0.00 0.01 0.01 0.03 0.04 0.07 0.13 0.13 0.15 0.17 0.14 0.11 0.07 0.06 0.06 0.09 0.16
0.00 0.00 0.00 0.00 0.00 0.00 0.00 0.00 0.00 0.00 0.00 0.01 0.01 0.00 0.00 0.00 0.01 0.03 0.01 0.00 0.00 0.03 0.01 0.01 0.01 0.02 0.01 0.00 0.01 0.03 0.02 0.03 0.04 0.08 0.10 0.08 0.10 0.11 0.12 0.11 0.10 0.12 0.14 0.12
0.00 0.00 0.00 0.00 0.00 0.00 0.00 0.00 0.00 0.00 0.00 0.02 0.01 0.00 0.00 0.00 0.01 0.01 0.00 0.00 0.01 0.00 0.00 0.01 0.01 0.01 0.00 0.00 0.01 0.02 0.01 0.02 0.03 0.02 0.03 0.04 0.04 0.04 0.07 0.07 0.05 0.06 0.06 0.08
0.00 0.00 0.00 0.00 0.00 0.00 0.00 0.00 0.00 0.00 0.01 0.01 0.00 0.00 0.00 0.00 0.00 0.00 0.00 0.00 0.00 0.00 0.01 0.01 0.01 0.01 0.00 0.00 0.01 0.03 0.02 0.02 0.02 0.02 0.02 0.02 0.03 0.03 0.03 0.05 0.09 0.10 0.12 0.12
0.00 0.00 0.00 0.00 0.01 0.00 0.00 0.01 0.01 0.00 0.01 0.01 0.01 0.00 0.00 0.00 0.00 0.00 0.00 0.00 0.00 0.01 0.01 0.01 0.02 0.01 0.00 0.00 0.01 0.02 0.01 0.02 0.02 0.02 0.02 0.03 0.03 0.02 0.01 0.05 0.07 0.07 0.07 0.05
0.00 0.00 0.00 0.00 0.00 0.01 0.01 0.01 0.01 0.00 0.01 0.01 0.00 0.00 0.00 0.00 0.00 0.00 0.00 0.00 0.01 0.01 0.01 0.01 0.01 0.00 0.00 0.01 0.01 0.03 0.04 0.04 0.03 0.02 0.02 0.02 0.02 0.04 0.06 0.04 0.02 0.04 0.05 0.05
0.00 0.00 0.00 0.00 0.00 0.00 0.00 0.01 0.01 0.01 0.01 0.00 0.00 0.00 0.00 0.00 0.00 0.00 0.00 0.01 0.01 0.01 0.01 0.01 0.01 0.00 0.00 0.01 0.01 0.02 0.02 0.02 0.01 0.01 0.00 0.00 0.01 0.01 0.00 0.01 0.01 0.01 0.02 0.02

GFSNW_prec_precacc24_258.txt.gz
Total_Precipitation_Accumulation
0.00 0.00 0.00 0.00 0.00 0.00 0.00 0.00 0.00 0.00 0.00 0.00 0.00 0.00 0.00 0.00 0.00 0.00 0.00 0.00 0.00 0.00 0.00 0.00 0.00 0.00 0.00 0.00 0.00 0.00 0.00 0.02 0.02 0.00 0.02 0.07 0.08 0.06 0.03 0.07 0.08 0.03 0.18 0.55
0.00 0.00 0.00 0.00 0.00 0.00 0.00 0.00 0.00 0.00 0.00 0.00 0.00 0.00 0.00 0.00 0.00 0.00 0.00 0.00 0.00 0.00 0.00 0.00 0.00 0.00 0.00 0.00 0.00 0.03 0.10 0.10 0.06 0.02 0.03 0.10 0.13 0.05 0.04 0.03 0.05 0.08 0.15 0.44
0.00 0.00 0.00 0.00 0.00 0.00 0.00 0.00 0.00 0.00 0.00 0.00 0.00 0.00 0.00 0.00 0.00 0.00 0.00 0.00 0.00 0.00 0.00 0.00 0.00 0.00 0.00 0.00 0.00 0.04 0.04 0.04 0.05 0.08 0.12 0.08 0.05 0.03 0.06 0.04 0.09 0.10 0.16 0.13
0.00 0.00 0.00 0.00 0.00 0.00 0.00 0.00 0.00 0.00 0.00 0.00 0.00 0.00 0.00 0.00 0.00 0.00 0.00 0.00 0.00 0.00 0.00 0.00 0.00 0.00 0.00 0.00 0.00 0.01 0.02 0.03 0.01 0.01 0.10 0.06 0.08 0.09 0.07 0.05 0.09 0.08 0.12 0.07
0.00 0.00 0.00 0.00 0.00 0.00 0.00 0.00 0.00 0.00 0.00 0.00 0.00 0.00 0.00 0.00 0.00 0.00 0.00 0.00 0.00 0.00 0.00 0.01 0.01 0.00 0.01 0.02 0.00 0.01 0.02 0.03 0.01 0.02 0.06 0.04 0.12 0.06 0.07 0.05 0.03 0.03 0.02 0.04
0.00 0.00 0.00 0.00 0.00 0.00 0.00 0.00 0.00 0.00 0.00 0.00 0.00 0.00 0.00 0.00 0.00 0.00 0.00 0.00 0.00 0.00 0.00 0.00 0.00 0.00 0.00 0.01 0.02 0.03 0.01 0.02 0.04 0.03 0.00 0.08 0.15 0.11 0.06 0.04 0.01 0.00 0.03 0.03
0.00 0.00 0.00 0.00 0.00 0.00 0.00 0.00 0.00 0.00 0.00 0.00 0.00 0.00 0.00 0.00 0.00 0.00 0.00 0.00 0.00 0.00 0.00 0.00 0.00 0.00 0.00 0.01 0.02 0.02 0.01 0.01 0.04 0.03 0.00 0.07 0.09 0.02 0.01 0.00 0.02 0.01 0.01 0.00
0.00 0.00 0.00 0.00 0.00 0.00 0.00 0.00 0.00 0.00 0.00 0.00 0.00 0.00 0.00 0.00 0.00 0.00 0.00 0.00 0.00 0.00 0.00 0.00 0.00 0.00 0.00 0.00 0.00 0.01 0.00 0.01 0.03 0.02 0.01 0.04 0.10 0.01 0.00 0.00 0.03 0.03 0.01 0.00
0.00 0.00 0.00 0.00 0.00 0.00 0.00 0.00 0.00 0.00 0.00 0.00 0.00 0.00 0.00 0.00 0.00 0.00 0.00 0.00 0.00 0.00 0.00 0.00 0.01 0.01 0.00 0.00 0.00 0.00 0.00 0.00 0.01 0.02 0.02 0.03 0.05 0.00 0.00 0.00 0.04 0.01 0.00 0.00
0.00 0.00 0.00 0.00 0.00 0.00 0.00 0.00 0.00 0.00 0.00 0.00 0.00 0.00 0.00 0.00 0.00 0.00 0.00 0.00 0.00 0.00 0.00 0.01 0.01 0.00 0.00 0.00 0.00 0.00 0.00 0.00 0.00 0.00 0.01 0.04 0.03 0.00 0.00 0.00 0.03 0.00 0.01 0.03
0.00 0.00 0.00 0.00 0.00 0.00 0.00 0.00 0.00 0.00 0.00 0.00 0.00 0.00 0.00 0.00 0.00 0.00 0.00 0.00 0.00 0.02 0.01 0.05 0.01 0.01 0.00 0.00 0.00 0.01 0.03 0.01 0.00 0.01 0.02 0.07 0.01 0.02 0.07 0.12 0.04 0.02 0.06 0.03
0.00 0.00 0.00 0.00 0.00 0.00 0.00 0.00 0.00 0.00 0.00 0.00 0.00 0.00 0.00 0.00 0.00 0.00 0.01 0.01 0.01 0.02 0.02 0.02 0.01 0.01 0.00 0.00 0.03 0.01 0.04 0.02 0.02 0.03 0.01 0.01 0.00 0.03 0.07 0.07 0.13 0.05 0.09 0.04
0.00 0.00 0.00 0.00 0.00 0.00 0.00 0.00 0.00 0.00 0.00 0.00 0.00 0.00 0.00 0.00 0.00 0.00 0.00 0.00 0.00 0.01 0.02 0.01 0.01 0.01 0.00 0.02 0.03 0.02 0.01 0.00 0.01 0.00 0.00 0.00 0.00 0.00 0.00 0.00 0.03 0.02 0.05 0.08
0.00 0.00 0.00 0.00 0.00 0.00 0.00 0.00 0.00 0.00 0.00 0.00 0.00 0.00 0.00 0.00 0.00 0.00 0.00 0.00 0.00 0.00 0.01 0.02 0.01 0.02 0.01 0.02 0.03 0.01 0.00 0.00 0.00 0.00 0.00 0.01 0.00 0.00 0.00 0.01 0.00 0.01 0.01 0.02
0.00 0.00 0.00 0.00 0.00 0.00 0.00 0.00 0.00 0.00 0.00 0.00 0.00 0.00 0.00 0.00 0.00 0.00 0.00 0.00 0.00 0.00 0.00 0.01 0.03 0.02 0.05 0.05 0.02 0.03 0.04 0.09 0.09 0.03 0.00 0.13 0.03 0.00 0.01 0.04 0.02 0.02 0.07 0.07
0.00 0.00 0.00 0.00 0.00 0.00 0.00 0.00 0.00 0.00 0.00 0.00 0.00 0.00 0.00 0.00 0.00 0.00 0.00 0.00 0.00 0.00 0.01 0.02 0.01 0.01 0.03 0.03 0.03 0.02 0.01 0.08 0.17 0.13 0.03 0.06 0.01 0.00 0.00 0.02 0.02 0.04 0.10 0.07
0.00 0.00 0.01 0.01 0.00 0.00 0.00 0.00 0.00 0.00 0.00 0.00 0.00 0.00 0.00 0.00 0.00 0.00 0.00 0.00 0.00 0.00 0.01 0.00 0.00 0.00 0.00 0.00 0.00 0.00 0.00 0.01 0.02 0.05 0.09 0.04 0.01 0.02 0.01 0.03 0.03 0.02 0.02 0.02
0.00 0.01 0.00 0.00 0.00 0.00 0.00 0.00 0.00 0.00 0.00 0.00 0.00 0.00 0.00 0.00 0.00 0.00 0.00 0.00 0.00 0.03 0.01 0.00 0.00 0.00 0.00 0.00 0.00 0.00 0.00 0.00 0.00 0.01 0.04 0.08 0.02 0.01 0.01 0.01 0.01 0.01 0.00 0.00
0.01 0.02 0.01 0.01 0.00 0.00 0.00 0.00 0.00 0.00 0.00 0.00 0.00 0.00 0.00 0.00 0.00 0.00 0.00 0.00 0.03 0.04 0.04 0.01 0.00 0.00 0.00 0.02 0.02 0.01 0.01 0.04 0.04 0.01 0.00 0.00 0.01 0.01 0.01 0.01 0.02 0.04 0.02 0.02
0.02 0.01 0.01 0.00 0.00 0.00 0.00 0.00 0.00 0.00 0.00 0.00 0.00 0.00 0.00 0.00 0.00 0.00 0.00 0.00 0.01 0.04 0.05 0.01 0.01 0.02 0.01 0.00 0.01 0.02 0.03 0.03 0.04 0.05 0.05 0.06 0.03 0.01 0.01 0.02 0.04 0.09 0.08 0.04
0.01 0.01 0.01 0.00 0.00 0.00 0.00 0.00 0.00 0.00 0.00 0.00 0.01 0.00 0.00 0.00 0.00 0.01 0.01 0.00 0.00 0.03 0.03 0.02 0.02 0.02 0.00 0.00 0.00 0.00 0.01 0.03 0.04 0.08 0.08 0.09 0.11 0.08 0.06 0.03 0.03 0.04 0.05 0.09
0.03 0.02 0.00 0.00 0.00 0.00 0.00 0.00 0.00 0.00 0.00 0.00 0.00 0.00 0.00 0.00 0.00 0.02 0.01 0.00 0.00 0.02 0.01 0.01 0.01 0.01 0.00 0.00 0.00 0.01 0.01 0.01 0.02 0.04 0.05 0.04 0.05 0.06 0.07 0.06 0.06 0.06 0.08 0.08
0.01 0.01 0.00 0.00 0.00 0.00 0.00 0.00 0.00 0.00 0.01 0.01 0.00 0.00 0.00 0.00 0.00 0.00 0.00 0.00 0.01 0.00 0.00 0.01 0.01 0.00 0.00 0.00 0.00 0.01 0.00 0.01 0.02 0.01 0.02 0.02 0.02 0.02 0.04 0.05 0.03 0.03 0.03 0.04
0.02 0.01 0.01 0.00 0.00 0.00 0.00 0.00 0.00 0.00 0.01 0.01 0.00 0.01 0.00 0.00 0.00 0.00 0.00 0.00 0.00 0.00 0.01 0.01 0.00 0.00 0.00 0.00 0.00 0.01 0.01 0.01 0.01 0.01 0.01 0.01 0.01 0.01 0.01 0.02 0.03 0.05 0.05 0.04
0.02 0.00 0.00 0.00 0.01 0.01 0.01 0.01 0.01 0.01 0.01 0.01 0.01 0.00 0.00 0.00 0.00 0.00 0.00 0.00 0.00 0.01 0.01 0.00 0.01 0.00 0.00 0.00 0.00 0.01 0.01 0.01 0.01 0.01 0.01 0.01 0.01 0.01 0.00 0.00 0.01 0.02 0.02 0.01
0.00 0.00 0.00 0.00 0.00 0.01 0.01 0.01 0.01 0.01 0.01 0.00 0.00 0.00 0.00 0.00 0.00 0.00 0.00 0.00 0.01 0.01 0.00 0.00 0.00 0.00 0.00 0.00 0.01 0.01 0.01 0.01 0.01 0.00 0.00 0.01 0.01 0.01 0.01 0.00 0.00 0.00 0.01 0.01
0.00 0.00 0.00 0.00 0.00 0.00 0.00 0.00 0.00 0.01 0.01 0.00 0.00 0.00 0.00 0.00 0.00 0.00 0.00 0.01 0.01 0.01 0.00 0.00 0.00 0.00 0.00 0.00 0.00 0.00 0.01 0.00 0.00 0.00 0.00 0.00 0.00 0.00 0.00 0.00 0.00 0.00 0.00 0.00

GFSNW_prec_precacc24_264.txt.gz
Total_Precipitation_Accumulation
0.00 0.00 0.00 0.00 0.00 0.00 0.00 0.00 0.00 0.00 0.00 0.00 0.00 0.00 0.00 0.00 0.00 0.00 0.00 0.00 0.00 0.00 0.00 0.00 0.00 0.00 0.00 0.00 0.00 0.00 0.00 0.02 0.02 0.00 0.02 0.07 0.06 0.06 0.03 0.06 0.08 0.03 0.16 0.42
0.00 0.00 0.00 0.00 0.00 0.00 0.00 0.00 0.00 0.00 0.00 0.00 0.00 0.00 0.00 0.00 0.00 0.00 0.00 0.00 0.00 0.00 0.00 0.00 0.00 0.00 0.00 0.00 0.00 0.03 0.04 0.04 0.03 0.01 0.02 0.03 0.05 0.03 0.03 0.02 0.05 0.08 0.15 0.33
0.00 0.00 0.00 0.00 0.00 0.00 0.00 0.00 0.00 0.00 0.00 0.00 0.00 0.00 0.00 0.00 0.00 0.00 0.00 0.00 0.00 0.00 0.00 0.00 0.00 0.00 0.00 0.00 0.00 0.02 0.01 0.02 0.03 0.05 0.11 0.07 0.05 0.03 0.05 0.04 0.09 0.11 0.16 0.12
0.00 0.00 0.00 0.00 0.00 0.00 0.00 0.00 0.00 0.00 0.00 0.00 0.00 0.00 0.00 0.00 0.00 0.00 0.00 0.00 0.00 0.00 0.00 0.00 0.00 0.00 0.00 0.00 0.00 0.01 0.01 0.01 0.00 0.01 0.10 0.06 0.06 0.05 0.02 0.02 0.05 0.05 0.08 0.03
0.00 0.00 0.00 0.00 0.00 0.00 0.00 0.00 0.00 0.00 0.00 0.00 0.00 0.00 0.00 0.00 0.00 0.00 0.00 0.00 0.00 0.00 0.00 0.00 0.00 0.00 0.01 0.01 0.00 0.01 0.01 0.01 0.00 0.02 0.05 0.03 0.02 0.01 0.02 0.01 0.00 0.00 0.00 0.00
0.00 0.00 0.00 0.00 0.00 0.00 0.00 0.00 0.00 0.00 0.00 0.00 0.00 0.00 0.00 0.00 0.00 0.00 0.00 0.00 0.00 0.00 0.00 0.00 0.00 0.00 0.00 0.01 0.00 0.00 0.01 0.01 0.01 0.01 0.00 0.05 0.08 0.03 0.01 0.00 0.00 0.00 0.03 0.02
0.00 0.00 0.00 0.00 0.00 0.00 0.00 0.00 0.00 0.00 0.00 0.00 0.00 0.00 0.00 0.00 0.00 0.00 0.00 0.00 0.00 0.00 0.00 0.00 0.00 0.00 0.00 0.00 0.00 0.00 0.00 0.01 0.02 0.01 0.00 0.05 0.03 0.00 0.00 0.00 0.02 0.01 0.01 0.00
0.00 0.00 0.00 0.00 0.00 0.00 0.00 0.00 0.00 0.00 0.00 0.00 0.00 0.00 0.00 0.00 0.00 0.00 0.00 0.00 0.00 0.00 0.00 0.00 0.00 0.00 0.00 0.00 0.00 0.00 0.00 0.01 0.01 0.01 0.01 0.03 0.07 0.00 0.00 0.00 0.03 0.02 0.01 0.00
0.01 0.00 0.00 0.00 0.00 0.00 0.00 0.00 0.00 0.00 0.00 0.00 0.00 0.00 0.00 0.00 0.00 0.00 0.00 0.00 0.00 0.00 0.00 0.00 0.00 0.00 0.00 0.00 0.00 0.00 0.00 0.00 0.01 0.01 0.01 0.03 0.04 0.00 0.00 0.00 0.04 0.01 0.00 0.01
0.01 0.00 0.00 0.00 0.00 0.00 0.00 0.00 0.00 0.00 0.00 0.00 0.00 0.00 0.00 0.00 0.00 0.00 0.00 0.00 0.00 0.00 0.00 0.00 0.00 0.00 0.00 0.00 0.00 0.00 0.00 0.00 0.00 0.00 0.00 0.03 0.02 0.00 0.00 0.00 0.03 0.00 0.00 0.03
0.04 0.00 0.00 0.00 0.00 0.00 0.00 0.00 0.00 0.00 0.01 0.00 0.00 0.00 0.00 0.00 0.00 0.00 0.00 0.00 0.00 0.00 0.00 0.00 0.00 0.01 0.00 0.00 0.00 0.00 0.01 0.00 0.00 0.00 0.01 0.04 0.00 0.01 0.05 0.07 0.01 0.01 0.03 0.02
0.05 0.02 0.00 0.00 0.00 0.00 0.00 0.01 0.01 0.01 0.01 0.00 0.00 0.00 0.00 0.00 0.00 0.00 0.01 0.01 0.01 0.01 0.01 0.01 0.01 0.01 0.00 0.00 0.03 0.00 0.02 0.00 0.00 0.01 0.00 0.00 0.00 0.02 0.05 0.04 0.07 0.04 0.06 0.02
0.08 0.02 0.00 0.00 0.00 0.00 0.00 0.01 0.01 0.01 0.00 0.00 0.00 0.00 0.00 0.00 0.00 0.00 0.00 0.00 0.00 0.00 0.01 0.01 0.01 0.00 0.00 0.01 0.02 0.01 0.00 0.00 0.00 0.00 0.00 0.00 0.00 0.00 0.00 0.00 0.03 0.02 0.04 0.06
0.10 0.03 0.01 0.00 0.00 0.00 0.00 0.01 0.01 0.01 0.00 0.00 0.00 0.00 0.00 0.00 0.00 0.00 0.00 0.00 0.00 0.00 0.01 0.01 0.01 0.01 0.01 0.01 0.00 0.00 0.00 0.00 0.00 0.00 0.00 0.01 0.00 0.00 0.00 0.00 0.00 0.00 0.00 0.02
0.12 0.05 0.02 0.01 0.00 0.00 0.01 0.01 0.01 0.00 0.00 0.00 0.00 0.00 0.00 0.00 0.00 0.00 0.00 0.00 0.00 0.00 0.00 0.01 0.02 0.02 0.02 0.01 0.01 0.01 0.01 0.03 0.03 0.01 0.00 0.08 0.02 0.00 0.00 0.02 0.01 0.01 0.04 0.05
0.13 0.07 0.03 0.02 0.02 0.01 0.02 0.02 0.01 0.00 0.00 0.00 0.00 0.00 0.00 0.00 0.00 0.00 0.00 0.00 0.00 0.00 0.01 0.02 0.00 0.00 0.01 0.02 0.02 0.01 0.00 0.02 0.07 0.06 0.02 0.04 0.01 0.00 0.00 0.02 0.01 0.02 0.06 0.04
0.15 0.09 0.07 0.05 0.03 0.02 0.02 0.02 0.01 0.00 0.00 0.00 0.00 0.00 0.00 0.00 0.00 0.00 0.00 0.00 0.00 0.00 0.01 0.00 0.00 0.00 0.00 0.00 0.00 0.00 0.00 0.00 0.00 0.01 0.04 0.03 0.00 0.02 0.01 0.02 0.01 0.02 0.02 0.02
0.18 0.13 0.07 0.04 0.03 0.03 0.03 0.02 0.01 0.00 0.00 0.00 0.00 0.00 0.00 0.00 0.00 0.00 0.00 0.00 0.01 0.04 0.02 0.00 0.00 0.00 0.00 0.00 0.00 0.00 0.00 0.00 0.00 0.00 0.02 0.05 0.01 0.00 0.00 0.01 0.01 0.00 0.00 0.00
0.19 0.11 0.06 0.05 0.04 0.04 0.03 0.01 0.01 0.00 0.00 0.00 0.00 0.00 0.00 0.00 0.00 0.00 0.00 0.00 0.04 0.04 0.05 0.02 0.01 0.01 0.00 0.00 0.00 0.00 0.01 0.02 0.02 0.00 0.00 0.00 0.01 0.01 0.00 0.00 0.01 0.03 0.02 0.01
0.13 0.08 0.09 0.08 0.06 0.03 0.02 0.01 0.01 0.00 0.00 0.00 0.00 0.00 0.00 0.00 0.00 0.00 0.00 0.00 0.01 0.04 0.03 0.01 0.01 0.01 0.00 0.00 0.00 0.00 0.01 0.01 0.02 0.03 0.03 0.04 0.02 0.01 0.01 0.02 0.03 0.06 0.06 0.03
0.13 0.12 0.11 0.06 0.04 0.04 0.02 0.01 0.00 0.00 0.00 0.00 0.01 0.00 0.00 0.00 0.00 0.00 0.01 0.00 0.00 0.03 0.02 0.01 0.02 0.01 0.00 0.00 0.00 0.00 0.00 0.01 0.02 0.05 0.05 0.07 0.08 0.06 0.03 0.02 0.01 0.02 0.02 0.04
0.18 0.15 0.10 0.07 0.05 0.03 0.02 0.01 0.00 0.00 0.00 0.00 0.00 0.01 0.00 0.00 0.00 0.01 0.01 0.00 0.00 0.02 0.00 0.01 0.01 0.01 0.00 0.00 0.00 0.00 0.00 0.00 0.01 0.01 0.02 0.02 0.02 0.02 0.03 0.02 0.02 0.02 0.03 0.03
0.13 0.11 0.08 0.07 0.05 0.03 0.01 0.00 0.00 0.00 0.00 0.01 0.00 0.01 0.00 0.00 0.00 0.00 0.00 0.00 0.01 0.00 0.00 0.01 0.01 0.00 0.00 0.00 0.00 0.00 0.00 0.00 0.00 0.00 0.00 0.00 0.00 0.00 0.02 0.02 0.01 0.01 0.01 0.01
0.15 0.10 0.09 0.07 0.04 0.02 0.01 0.00 0.00 0.00 0.01 0.00 0.00 0.01 0.00 0.00 0.00 0.00 0.00 0.00 0.00 0.00 0.01 0.01 0.00 0.00 0.00 0.00 0.00 0.00 0.00 0.00 0.00 0.00 0.00 0.00 0.00 0.00 0.00 0.01 0.01 0.02 0.01 0.01
0.09 0.07 0.04 0.02 0.01 0.01 0.01 0.01 0.00 0.01 0.00 0.00 0.01 0.00 0.00 0.00 0.00 0.00 0.00 0.00 0.00 0.01 0.01 0.00 0.00 0.00 0.00 0.00 0.00 0.00 0.00 0.00 0.00 0.00 0.00 0.00 0.00 0.01 0.00 0.00 0.00 0.01 0.01 0.00
0.04 0.03 0.02 0.01 0.00 0.01 0.01 0.01 0.01 0.01 0.00 0.00 0.00 0.00 0.00 0.00 0.00 0.00 0.00 0.00 0.01 0.01 0.00 0.00 0.00 0.00 0.00 0.00 0.00 0.00 0.00 0.00 0.00 0.00 0.00 0.00 0.01 0.01 0.00 0.00 0.00 0.00 0.00 0.01
0.02 0.02 0.01 0.00 0.00 0.00 0.00 0.00 0.00 0.00 0.00 0.00 0.00 0.00 0.00 0.00 0.00 0.00 0.00 0.01 0.01 0.01 0.00 0.00 0.00 0.00 0.00 0.00 0.00 0.00 0.00 0.00 0.00 0.00 0.00 0.00 0.00 0.00 0.00 0.00 0.00 0.00 0.00 0.00

GFSNW_prec_precacc24_267.txt.gz
Total_Precipitation_Accumulation
0.00 0.00 0.00 0.00 0.00 0.00 0.00 0.00 0.00 0.00 0.00 0.00 0.00 0.00 0.00 0.00 0.00 0.00 0.00 0.00 0.00 0.00 0.00 0.00 0.00 0.00 0.00 0.00 0.00 0.00 0.00 0.01 0.00 0.00 0.01 0.04 0.02 0.02 0.02 0.05 0.04 0.02 0.16 0.29
0.00 0.00 0.00 0.00 0.00 0.00 0.00 0.00 0.00 0.00 0.00 0.00 0.00 0.00 0.00 0.00 0.00 0.00 0.00 0.00 0.00 0.00 0.00 0.00 0.00 0.00 0.00 0.00 0.00 0.01 0.02 0.01 0.02 0.01 0.01 0.01 0.01 0.01 0.02 0.02 0.05 0.08 0.14 0.20
0.00 0.00 0.00 0.00 0.00 0.00 0.00 0.00 0.00 0.00 0.00 0.00 0.00 0.00 0.00 0.00 0.00 0.00 0.00 0.00 0.00 0.00 0.00 0.00 0.00 0.00 0.00 0.00 0.00 0.01 0.01 0.00 0.01 0.02 0.10 0.05 0.02 0.00 0.01 0.01 0.05 0.09 0.10 0.05
0.00 0.00 0.00 0.00 0.00 0.00 0.00 0.00 0.00 0.00 0.00 0.00 0.00 0.00 0.00 0.00 0.00 0.00 0.00 0.00 0.00 0.00 0.00 0.00 0.00 0.00 0.00 0.00 0.00 0.00 0.00 0.00 0.00 0.00 0.07 0.00 0.00 0.00 0.00 0.01 0.01 0.04 0.03 0.01
0.00 0.00 0.00 0.00 0.00 0.00 0.00 0.00 0.00 0.00 0.00 0.00 0.00 0.00 0.00 0.00 0.00 0.00 0.00 0.00 0.00 0.00 0.00 0.00 0.00 0.00 0.00 0.00 0.00 0.00 0.00 0.00 0.00 0.01 0.03 0.00 0.01 0.01 0.01 0.01 0.00 0.00 0.00 0.00
0.00 0.00 0.00 0.00 0.00 0.00 0.00 0.00 0.00 0.00 0.00 0.00 0.00 0.00 0.00 0.00 0.00 0.00 0.00 0.00 0.00 0.00 0.00 0.00 0.00 0.00 0.00 0.00 0.00 0.00 0.00 0.00 0.00 0.00 0.00 0.01 0.06 0.02 0.01 0.00 0.00 0.00 0.03 0.02
0.00 0.00 0.00 0.00 0.00 0.00 0.00 0.00 0.00 0.00 0.00 0.00 0.00 0.00 0.00 0.00 0.00 0.00 0.00 0.00 0.00 0.00 0.00 0.00 0.00 0.00 0.00 0.00 0.00 0.00 0.00 0.00 0.00 0.00 0.00 0.02 0.02 0.00 0.00 0.00 0.02 0.01 0.01 0.00
0.01 0.00 0.00 0.00 0.00 0.00 0.00 0.00 0.00 0.00 0.00 0.00 0.00 0.00 0.00 0.00 0.00 0.00 0.00 0.00 0.00 0.00 0.00 0.00 0.00 0.00 0.00 0.00 0.00 0.00 0.00 0.00 0.00 0.00 0.00 0.03 0.06 0.00 0.00 0.00 0.03 0.02 0.01 0.00
0.03 0.00 0.00 0.00 0.00 0.00 0.00 0.00 0.00 0.00 0.00 0.00 0.00 0.00 0.00 0.00 0.00 0.00 0.00 0.00 0.00 0.00 0.00 0.00 0.00 0.00 0.00 0.00 0.00 0.00 0.00 0.00 0.00 0.00 0.00 0.02 0.03 0.00 0.00 0.00 0.03 0.00 0.00 0.01
0.07 0.01 0.00 0.00 0.00 0.00 0.00 0.00 0.00 0.00 0.00 0.00 0.00 0.00 0.00 0.00 0.00 0.00 0.00 0.00 0.00 0.00 0.00 0.00 0.00 0.00 0.00 0.00 0.00 0.00 0.00 0.00 0.00 0.00 0.00 0.02 0.01 0.00 0.00 0.00 0.02 0.00 0.00 0.03
0.07 0.02 0.00 0.00 0.00 0.00 0.00 0.00 0.00 0.00 0.01 0.00 0.00 0.00 0.00 0.00 0.00 0.00 0.00 0.00 0.00 0.00 0.00 0.00 0.00 0.00 0.00 0.00 0.00 0.00 0.00 0.00 0.00 0.00 0.01 0.02 0.00 0.01 0.04 0.06 0.01 0.01 0.02 0.01
0.19 0.11 0.03 0.00 0.00 0.00 0.00 0.01 0.01 0.01 0.01 0.00 0.00 0.00 0.00 0.00 0.00 0.00 0.00 0.00 0.00 0.00 0.01 0.01 0.00 0.00 0.00 0.00 0.02 0.00 0.00 0.00 0.00 0.00 0.00 0.00 0.00 0.02 0.05 0.04 0.06 0.04 0.06 0.02
0.31 0.16 0.05 0.01 0.00 0.00 0.00 0.01 0.01 0.01 0.01 0.00 0.00 0.00 0.00 0.00 0.00 0.00 0.00 0.00 0.00 0.00 0.01 0.00 0.00 0.00 0.00 0.01 0.01 0.00 0.00 0.00 0.00 0.00 0.00 0.00 0.00 0.00 0.00 0.00 0.03 0.02 0.04 0.06
0.35 0.17 0.05 0.02 0.00 0.00 0.00 0.01 0.02 0.02 0.02 0.01 0.00 0.00 0.00 0.00 0.00 0.00 0.00 0.00 0.00 0.00 0.00 0.01 0.00 0.00 0.00 0.00 0.00 0.00 0.00 0.00 0.00 0.00 0.00 0.00 0.00 0.00 0.00 0.00 0.00 0.00 0.00 0.02
0.37 0.21 0.08 0.03 0.01 0.01 0.01 0.02 0.02 0.02 0.02 0.02 0.00 0.00 0.00 0.00 0.00 0.00 0.00 0.00 0.00 0.00 0.00 0.00 0.02 0.01 0.00 0.01 0.01 0.00 0.00 0.01 0.02 0.00 0.00 0.06 0.01 0.00 0.00 0.02 0.01 0.01 0.04 0.04
0.33 0.17 0.07 0.04 0.05 0.03 0.02 0.04 0.02 0.02 0.02 0.01 0.00 0.00 0.00 0.00 0.00 0.00 0.00 0.00 0.00 0.00 0.01 0.02 0.00 0.00 0.00 0.01 0.02 0.00 0.00 0.01 0.04 0.03 0.01 0.03 0.01 0.00 0.00 0.01 0.01 0.01 0.04 0.02
0.32 0.20 0.14 0.10 0.04 0.03 0.04 0.04 0.02 0.02 0.02 0.01 0.01 0.00 0.00 0.00 0.00 0.00 0.00 0.00 0.00 0.00 0.01 0.00 0.00 0.00 0.00 0.00 0.00 0.00 0.00 0.00 0.00 0.00 0.02 0.02 0.00 0.02 0.00 0.01 0.01 0.01 0.01 0.01
0.35 0.29 0.19 0.08 0.04 0.05 0.05 0.03 0.03 0.02 0.03 0.01 0.00 0.00 0.00 0.00 0.00 0.00 0.00 0.00 0.01 0.04 0.02 0.00 0.00 0.00 0.00 0.00 0.00 0.00 0.00 0.00 0.00 0.00 0.02 0.03 0.01 0.00 0.00 0.00 0.00 0.00 0.00 0.00
0.39 0.25 0.10 0.07 0.06 0.06 0.05 0.03 0.04 0.03 0.02 0.01 0.00 0.00 0.00 0.00 0.00 0.00 0.00 0.00 0.04 0.04 0.06 0.02 0.01 0.01 0.00 0.00 0.00 0.00 0.00 0.01 0.01 0.00 0.00 0.00 0.00 0.00 0.00 0.00 0.01 0.02 0.01 0.01
0.29 0.14 0.12 0.11 0.07 0.05 0.03 0.03 0.02 0.01 0.01 0.00 0.00 0.00 0.00 0.00 0.00 0.00 0.00 0.00 0.01 0.03 0.03 0.01 0.01 0.01 0.00 0.00 0.00 0.00 0.00 0.01 0.02 0.02 0.02 0.02 0.01 0.00 0.00 0.01 0.02 0.05 0.04 0.02
0.19 0.17 0.19 0.13 0.09 0.08 0.04 0.03 0.01 0.01 0.00 0.00 0.01 0.00 0.00 0.00 0.00 0.00 0.01 0.00 0.00 0.02 0.01 0.01 0.02 0.01 0.00 0.00 0.00 0.00 0.00 0.00 0.01 0.03 0.03 0.04 0.06 0.05 0.02 0.01 0.01 0.01 0.02 0.03
0.25 0.26 0.23 0.16 0.10 0.05 0.04 0.02 0.01 0.01 0.01 0.01 0.00 0.01 0.00 0.00 0.00 0.00 0.01 0.00 0.00 0.01 0.00 0.01 0.01 0.01 0.00 0.00 0.00 0.00 0.00 0.00 0.00 0.00 0.01 0.01 0.01 0.02 0.03 0.02 0.02 0.01 0.02 0.01
0.28 0.25 0.16 0.11 0.07 0.05 0.02 0.01 0.01 0.01 0.01 0.01 0.00 0.01 0.00 0.00 0.00 0.00 0.00 0.00 0.00 0.00 0.00 0.01 0.01 0.00 0.00 0.00 0.00 0.00 0.00 0.00 0.00 0.00 0.00 0.00 0.00 0.00 0.02 0.02 0.01 0.01 0.01 0.01
0.31 0.18 0.13 0.09 0.05 0.02 0.01 0.01 0.00 0.01 0.01 0.00 0.00 0.01 0.00 0.00 0.00 0.00 0.00 0.00 0.00 0.00 0.01 0.01 0.00 0.00 0.00 0.00 0.00 0.00 0.00 0.00 0.00 0.00 0.00 0.00 0.00 0.00 0.00 0.01 0.01 0.01 0.01 0.00
0.16 0.10 0.06 0.03 0.02 0.01 0.01 0.01 0.00 0.00 0.00 0.00 0.01 0.00 0.00 0.00 0.00 0.00 0.00 0.00 0.00 0.01 0.01 0.00 0.00 0.00 0.00 0.00 0.00 0.00 0.00 0.00 0.00 0.00 0.00 0.00 0.00 0.01 0.00 0.00 0.00 0.01 0.01 0.00
0.08 0.05 0.02 0.01 0.01 0.02 0.01 0.01 0.01 0.01 0.00 0.00 0.00 0.00 0.00 0.00 0.00 0.00 0.00 0.00 0.01 0.01 0.00 0.00 0.00 0.00 0.00 0.00 0.00 0.00 0.00 0.00 0.00 0.00 0.00 0.00 0.01 0.01 0.00 0.00 0.00 0.00 0.00 0.00
0.04 0.02 0.01 0.01 0.00 0.00 0.00 0.00 0.00 0.00 0.00 0.00 0.00 0.00 0.00 0.00 0.00 0.00 0.00 0.01 0.01 0.00 0.00 0.00 0.00 0.00 0.00 0.00 0.00 0.00 0.00 0.00 0.00 0.00 0.00 0.00 0.00 0.00 0.00 0.00 0.00 0.00 0.00 0.00

GFSNW_prec_precacc24_270.txt.gz
Total_Precipitation_Accumulation
0.00 0.00 0.00 0.00 0.00 0.00 0.00 0.00 0.00 0.00 0.00 0.00 0.00 0.00 0.00 0.00 0.00 0.00 0.00 0.00 0.00 0.00 0.00 0.00 0.00 0.00 0.00 0.00 0.00 0.00 0.00 0.00 0.00 0.00 0.00 0.01 0.01 0.00 0.01 0.05 0.03 0.02 0.10 0.10
0.00 0.00 0.00 0.00 0.00 0.00 0.00 0.00 0.00 0.00 0.00 0.00 0.00 0.00 0.00 0.00 0.00 0.00 0.00 0.00 0.00 0.00 0.00 0.00 0.00 0.00 0.00 0.00 0.00 0.00 0.00 0.00 0.01 0.00 0.00 0.00 0.00 0.00 0.00 0.02 0.04 0.03 0.07 0.06
0.00 0.00 0.00 0.00 0.00 0.00 0.00 0.00 0.00 0.00 0.00 0.00 0.00 0.00 0.00 0.00 0.00 0.00 0.00 0.00 0.00 0.00 0.00 0.00 0.00 0.00 0.00 0.00 0.00 0.00 0.00 0.00 0.01 0.01 0.04 0.03 0.00 0.00 0.00 0.01 0.02 0.02 0.02 0.01
0.00 0.00 0.00 0.00 0.00 0.00 0.00 0.00 0.00 0.00 0.00 0.00 0.00 0.00 0.00 0.00 0.00 0.00 0.00 0.00 0.00 0.00 0.00 0.00 0.00 0.00 0.00 0.00 0.00 0.00 0.00 0.00 0.00 0.00 0.02 0.00 0.00 0.00 0.00 0.01 0.01 0.04 0.00 0.00
0.00 0.00 0.00 0.00 0.00 0.00 0.00 0.00 0.00 0.00 0.00 0.00 0.00 0.00 0.00 0.00 0.00 0.00 0.00 0.00 0.00 0.00 0.00 0.00 0.00 0.00 0.00 0.00 0.00 0.00 0.00 0.00 0.00 0.00 0.02 0.00 0.01 0.01 0.01 0.01 0.00 0.00 0.00 0.00
0.03 0.01 0.00 0.00 0.00 0.00 0.00 0.00 0.00 0.00 0.00 0.00 0.00 0.00 0.00 0.00 0.00 0.00 0.00 0.00 0.00 0.00 0.00 0.00 0.00 0.00 0.00 0.00 0.00 0.00 0.00 0.00 0.00 0.00 0.00 0.01 0.05 0.01 0.01 0.00 0.00 0.00 0.02 0.01
0.10 0.04 0.01 0.00 0.00 0.00 0.00 0.00 0.00 0.00 0.00 0.00 0.00 0.00 0.00 0.00 0.00 0.00 0.00 0.00 0.00 0.00 0.00 0.00 0.00 0.00 0.00 0.00 0.00 0.00 0.00 0.00 0.00 0.00 0.00 0.00 0.01 0.00 0.00 0.00 0.02 0.01 0.01 0.00
0.28 0.18 0.08 0.02 0.01 0.00 0.00 0.00 0.00 0.00 0.00 0.00 0.00 0.00 0.00 0.00 0.00 0.00 0.00 0.00 0.00 0.00 0.00 0.00 0.00 0.00 0.00 0.00 0.00 0.00 0.00 0.00 0.00 0.00 0.00 0.01 0.04 0.00 0.00 0.00 0.02 0.02 0.01 0.00
0.35 0.27 0.17 0.09 0.03 0.00 0.00 0.00 0.00 0.00 0.00 0.00 0.00 0.00 0.00 0.00 0.00 0.00 0.00 0.00 0.00 0.00 0.00 0.00 0.00 0.00 0.00 0.00 0.00 0.00 0.00 0.00 0.00 0.00 0.00 0.01 0.01 0.00 0.00 0.00 0.02 0.00 0.00 0.01
0.42 0.37 0.24 0.13 0.04 0.00 0.00 0.00 0.00 0.00 0.00 0.00 0.00 0.00 0.00 0.00 0.00 0.00 0.00 0.00 0.00 0.00 0.00 0.00 0.00 0.00 0.00 0.00 0.00 0.00 0.00 0.00 0.00 0.00 0.00 0.01 0.01 0.00 0.00 0.00 0.01 0.00 0.00 0.03
0.35 0.38 0.29 0.15 0.07 0.01 0.00 0.00 0.00 0.00 0.01 0.00 0.00 0.00 0.00 0.00 0.00 0.00 0.00 0.00 0.00 0.00 0.00 0.00 0.00 0.00 0.00 0.00 0.00 0.00 0.00 0.00 0.00 0.00 0.00 0.01 0.00 0.01 0.03 0.04 0.01 0.01 0.02 0.01
0.48 0.43 0.32 0.20 0.08 0.02 0.00 0.01 0.01 0.01 0.02 0.01 0.00 0.00 0.00 0.00 0.00 0.00 0.00 0.00 0.00 0.00 0.00 0.00 0.00 0.00 0.00 0.00 0.01 0.00 0.00 0.00 0.00 0.00 0.00 0.00 0.00 0.02 0.04 0.04 0.06 0.04 0.06 0.02
0.61 0.50 0.36 0.18 0.06 0.01 0.00 0.02 0.02 0.02 0.02 0.01 0.00 0.00 0.01 0.00 0.00 0.00 0.00 0.00 0.00 0.00 0.00 0.00 0.00 0.00 0.00 0.00 0.00 0.00 0.00 0.00 0.00 0.00 0.00 0.00 0.00 0.00 0.00 0.00 0.03 0.02 0.04 0.05
0.65 0.55 0.36 0.19 0.09 0.03 0.01 0.03 0.03 0.04 0.02 0.01 0.00 0.00 0.00 0.00 0.00 0.00 0.00 0.00 0.00 0.00 0.00 0.00 0.00 0.00 0.00 0.00 0.00 0.00 0.00 0.00 0.00 0.00 0.00 0.00 0.00 0.00 0.00 0.00 0.00 0.00 0.00 0.01
0.69 0.55 0.38 0.23 0.12 0.06 0.06 0.07 0.04 0.02 0.02 0.02 0.00 0.00 0.00 0.00 0.00 0.00 0.00 0.00 0.00 0.00 0.00 0.00 0.00 0.00 0.00 0.00 0.00 0.00 0.00 0.00 0.01 0.00 0.00 0.04 0.01 0.00 0.00 0.01 0.01 0.01 0.03 0.03
0.61 0.48 0.35 0.23 0.17 0.13 0.09 0.07 0.03 0.02 0.02 0.01 0.00 0.00 0.00 0.00 0.00 0.00 0.00 0.00 0.00 0.00 0.00 0.01 0.00 0.00 0.00 0.01 0.01 0.00 0.00 0.00 0.02 0.02 0.01 0.02 0.01 0.00 0.00 0.01 0.00 0.00 0.02 0.01
0.55 0.45 0.38 0.33 0.25 0.11 0.09 0.07 0.02 0.02 0.02 0.01 0.01 0.00 0.00 0.00 0.00 0.00 0.00 0.00 0.00 0.00 0.01 0.00 0.00 0.00 0.00 0.00 0.00 0.00 0.00 0.00 0.00 0.00 0.02 0.01 0.00 0.01 0.00 0.00 0.00 0.00 0.00 0.00
0.54 0.51 0.50 0.35 0.13 0.08 0.08 0.04 0.03 0.03 0.03 0.01 0.00 0.00 0.00 0.00 0.00 0.00 0.00 0.00 0.00 0.04 0.02 0.00 0.00 0.00 0.00 0.00 0.00 0.00 0.00 0.00 0.00 0.00 0.01 0.02 0.00 0.00 0.00 0.00 0.00 0.00 0.00 0.00
0.61 0.57 0.36 0.20 0.14 0.11 0.08 0.05 0.04 0.03 0.02 0.01 0.00 0.00 0.00 0.00 0.00 0.00 0.00 0.00 0.03 0.04 0.06 0.03 0.01 0.01 0.00 0.00 0.00 0.00 0.00 0.01 0.01 0.00 0.00 0.00 0.00 0.00 0.00 0.00 0.00 0.01 0.01 0.00
0.48 0.34 0.34 0.29 0.15 0.09 0.07 0.06 0.04 0.02 0.01 0.00 0.00 0.00 0.00 0.00 0.00 0.00 0.00 0.00 0.01 0.02 0.03 0.01 0.02 0.01 0.00 0.00 0.00 0.00 0.00 0.00 0.01 0.01 0.01 0.01 0.01 0.00 0.00 0.01 0.02 0.03 0.03 0.02
0.32 0.34 0.37 0.29 0.19 0.16 0.10 0.07 0.03 0.01 0.00 0.00 0.01 0.00 0.00 0.00 0.00 0.00 0.00 0.00 0.00 0.01 0.01 0.01 0.01 0.01 0.00 0.00 0.00 0.00 0.00 0.00 0.01 0.02 0.02 0.03 0.04 0.03 0.02 0.01 0.01 0.01 0.02 0.03
0.33 0.39 0.40 0.31 0.22 0.15 0.10 0.03 0.01 0.01 0.01 0.01 0.00 0.00 0.00 0.00 0.00 0.00 0.00 0.00 0.00 0.00 0.00 0.01 0.01 0.00 0.00 0.00 0.00 0.00 0.00 0.00 0.00 0.00 0.00 0.01 0.01 0.02 0.02 0.02 0.01 0.01 0.01 0.01
0.45 0.42 0.34 0.28 0.19 0.11 0.04 0.01 0.01 0.01 0.01 0.01 0.00 0.00 0.00 0.00 0.00 0.00 0.00 0.00 0.00 0.00 0.00 0.01 0.01 0.00 0.00 0.00 0.00 0.00 0.00 0.00 0.00 0.00 0.00 0.00 0.00 0.00 0.01 0.02 0.01 0.01 0.01 0.00
0.60 0.38 0.28 0.19 0.11 0.03 0.01 0.01 0.00 0.01 0.01 0.00 0.00 0.01 0.00 0.00 0.00 0.00 0.00 0.00 0.00 0.00 0.01 0.01 0.00 0.00 0.00 0.00 0.00 0.00 0.00 0.00 0.00 0.00 0.00 0.00 0.00 0.00 0.00 0.00 0.01 0.01 0.01 0.00
0.46 0.28 0.18 0.09 0.03 0.01 0.01 0.01 0.01 0.01 0.00 0.00 0.00 0.00 0.00 0.00 0.00 0.00 0.00 0.00 0.00 0.01 0.01 0.00 0.00 0.00 0.00 0.00 0.00 0.00 0.00 0.00 0.00 0.00 0.00 0.00 0.00 0.00 0.00 0.00 0.00 0.01 0.00 0.00
0.29 0.16 0.06 0.02 0.01 0.02 0.02 0.01 0.02 0.01 0.00 0.00 0.00 0.00 0.00 0.00 0.00 0.00 0.00 0.00 0.00 0.00 0.00 0.00 0.00 0.00 0.00 0.00 0.00 0.00 0.00 0.00 0.00 0.00 0.00 0.00 0.00 0.00 0.00 0.00 0.00 0.00 0.00 0.00
0.15 0.05 0.01 0.01 0.01 0.02 0.02 0.02 0.00 0.00 0.00 0.00 0.00 0.00 0.00 0.00 0.00 0.00 0.00 0.00 0.00 0.00 0.00 0.00 0.00 0.00 0.00 0.00 0.00 0.00 0.00 0.00 0.00 0.00 0.00 0.00 0.00 0.00 0.00 0.00 0.00 0.00 0.00 0.00